Regional Weather Roundup
Issued by NWS Austin/San Antonio, TX

Current Version | Previous Version | Text Only | Print | Product List | Glossary On
Versions: 1 2 3 4 5 6 7 8 9 10 11 12 13 14 15 16 17 18 19 20 21 22 23 24 25 26 27 28 29 30 31 32 33 34 35 36 37 38 39 40 41 42 43 44 45 46 47 48 49 50
000
ASUS44 KEWX 040013
RWREWX
SOUTH TEXAS REGIONAL WEATHER ROUNDUP
NATIONAL WEATHER SERVICE AUSTIN/SAN ANTONIO TX
700 PM CDT MON OCT 03 2022

NOTE: "FAIR" INDICATED FEW OR NO CLOUDS BELOW 12,000 FEET WITH NO
SIGNIFICANT WEATHER AND/OR OBSTRUCTIONS TO VISIBILITY.

* - THESE STATIONS ARE NOT NWS OR FAA STATIONS...AND ARE NOT SUBJECT
    TO NWS AND FAA QUALITY CONTROL.

TXZ171-172-183>190-040100-
TEXAS HILL COUNTRY AND EDWARDS PLATEAU

CITY           SKY/WX    TMP DP  RH WIND       PRES   REMARKS
JUNCTION       PTCLDY    83  40  21 SE8       30.10R
6HR MIN TEMP:  82; 6HR MAX TEMP:  87;

*LLANO         MOCLDY    82  37  20 CALM      30.08S
BURNET         MOCLDY    80  39  23 E6        30.12R
6HR MIN TEMP:  80; 6HR MAX TEMP:  86;

*HORSESHOE BAY MOCLDY    80  37  21 SE3       30.09S
6HR MIN TEMP:  80; 6HR MAX TEMP:  87;

*LAGO VISTA      N/A     78  39  25 CALM      30.10S
6HR MIN TEMP:  78; 6HR MAX TEMP:  89;

*KERRVILLE     MOCLDY    80  44  28 S5        30.10R
6HR MIN TEMP:  80; 6HR MAX TEMP:  85;

*FREDERICKSBRG MOCLDY    78  38  23 CALM      30.10S
6HR MIN TEMP:  78; 6HR MAX TEMP:  84;

*ROCKSPRINGS   PTCLDY    73  48  40 S6        30.17S
*BOERNE        MOCLDY    77  36  22 CALM      30.10S
HONDO          MOCLDY    80  48  32 S6        30.08S
6HR MIN TEMP:  80; 6HR MAX TEMP:  87;

*UVALDE        MOCLDY    79  46  30 S6        30.10S
6HR MIN TEMP:  79; 6HR MAX TEMP:  83;

DEL RIO        MOCLDY    79  57  46 E7        30.06S
6HR MIN TEMP:  79; 6HR MAX TEMP:  84;

*LAUGHLIN AFB  MOCLDY    78  53  41 E8        30.05S
6HR MIN TEMP:  78; 6HR MAX TEMP:  83;

*SPOFFORD      MOCLDY    78  53  40 N8        30.07S
6HR MIN TEMP:  78; 6HR MAX TEMP:  82;

CARRIZO SPRGS  CLOUDY    79  48  34 E3        30.06S
*FAITH RANCH   CLEAR     81  54  39 S6        30.09R
$$

TXZ173-191>194-202-209-217>225-228-040100-
CENTRAL AND SOUTH CENTRAL TEXAS

CITY           SKY/WX    TMP DP  RH WIND       PRES   REMARKS
GEORGETOWN     MOCLDY    82  42  24 CALM      30.10S
6HR MIN TEMP:  81; 6HR MAX TEMP:  86;

*TAYLOR        MOCLDY    80  43  27 SE3       30.08S
6HR MIN TEMP:  79; 6HR MAX TEMP:  87;

AUSTIN/BERGSTM MOCLDY    79  43  27 S6        30.06S
6HR MIN TEMP:  79; 6HR MAX TEMP:  87;

AUSTIN/MABRY   MOCLDY    83  40  21 SE3       30.08S
6HR MIN TEMP:  82; 6HR MAX TEMP:  90;

*PFLUGERVILLE  MOCLDY    81  36  19 E5        30.06S
SAN MARCOS     MOCLDY   N/A N/A N/A CALM        N/A
NEW BRAUNFELS  MOCLDY    82  39  21 NE6       30.06S
6HR MIN TEMP:  82; 6HR MAX TEMP:  89;

*RANDOLPH AFB  CLEAR     80  39  22 SE6       30.04S
6HR MIN TEMP:  80; 6HR MAX TEMP:  87;

*SEGUIN        MOCLDY    81  39  21 SE3       30.04S
6HR MIN TEMP:  81; 6HR MAX TEMP:  87;

SAN ANTONIO    MOCLDY    83  39  21 CALM      30.07S
6HR MIN TEMP:  81; 6HR MAX TEMP:  87;

STINSON FIELD  MOCLDY    82  44  26 SE8       30.04S
6HR MIN TEMP:  82; 6HR MAX TEMP:  89;

*KELLY FIELD   MOCLDY    82  44  26 S7        30.04S
6HR MIN TEMP:  82; 6HR MAX TEMP:  86;

*PLEASANTON    MOCLDY    81  46  29 CALM      30.08R
6HR MIN TEMP:  81; 6HR MAX TEMP:  86;

*KENEDY        MOCLDY    82  47  29 E3        30.07S
6HR MIN TEMP:  81; 6HR MAX TEMP:  87;

*LA GRANGE     NOT AVBL
*GIDDINGS      MOCLDY    79  42  26 CALM      30.07S
6HR MIN TEMP:  79; 6HR MAX TEMP:  87;

*GONZALES      MOCLDY    82  43  25 CALM      30.06S
6HR MIN TEMP:  82; 6HR MAX TEMP:  89;

$$

TXZ163>164-176>182-195>201-210>213-226-227-235-040100-
SOUTHEAST TEXAS

CITY           SKY/WX    TMP DP  RH WIND       PRES   REMARKS
COLLEGE STN    MOCLDY    83  43  24 NW5       30.05S
6HR MIN TEMP:  83; 6HR MAX TEMP:  90;

*BRYAN         MOCLDY    82  45  27 CALM      30.08S
6HR MIN TEMP:  82; 6HR MAX TEMP:  88;

*CALDWELL      MOCLDY    78  49  35 N3        30.07S
6HR MIN TEMP:  77; 6HR MAX TEMP:  87;

*CROCKETT      MOCLDY    81  43  26 N7        30.07R
*BRENHAM       MOCLDY    83  44  25 CALM        N/A
6HR MIN TEMP:  83; 6HR MAX TEMP:  88;

HUNTSVILLE     PTCLDY    82  45  27 CALM      30.05R
6HR MIN TEMP:  82; 6HR MAX TEMP:  90;

CONROE         PTCLDY    76  54  46 N3        30.06R
6HR MIN TEMP:  76; 6HR MAX TEMP:  89;

HOUSTON BUSH   MOCLDY    78  53  41 SE5       30.04S
6HR MIN TEMP:  78; 6HR MAX TEMP:  89;

HOUSTON HOBBY  MOCLDY    85  45  24 E6        30.04R
6HR MIN TEMP:  83; 6HR MAX TEMP:  89;

*HOUSTON SW AP NOT AVBL
PEARLAND       PTCLDY    79  56  45 CALM      30.06R
6HR MIN TEMP:  79; 6HR MAX TEMP:  87;

HOUSTON HOOKS  PTCLDY    78  53  41 CALM      30.05S
6HR MIN TEMP:  78; 6HR MAX TEMP:  90;

ELLINGTON FLD  CLEAR     81  52  36 CALM      30.04R
SUGAR LAND     PTCLDY    78  50  37 S5        30.04R
6HR MIN TEMP:  78; 6HR MAX TEMP:  90;

*HOUSTON EXEC  PTCLDY    81  50  34 CALM      30.06S
*CLEVELAND MUN NOT AVBL
*WHARTON       MOCLDY    80  44  28 NE3       30.06S
6HR MIN TEMP:  80; 6HR MAX TEMP:  87;

*COLUMBUS      FAIR      81  45  28 CALM      30.07R
6HR MIN TEMP:  81; 6HR MAX TEMP:  88;

*EAGLE LAKE    MOCLDY    80  45  28 SE7       30.06R
6HR MIN TEMP:  80; 6HR MAX TEMP:  89;

$$

TXZ214>216-236>238-040100-
THE UPPER TEXAS COAST

CITY           SKY/WX    TMP DP  RH WIND       PRES   REMARKS
*ORANGE        PTCLDY    78  59  51 CALM      30.05R
6HR MIN TEMP:  78; 6HR MAX TEMP:  90;

PORT ARTHUR    PTCLDY    77  54  44 NE3       30.03R
6HR MIN TEMP:  77; 6HR MAX TEMP:  88;

GALVESTON      PTCLDY    76  54  46 SE6       30.06R
6HR MIN TEMP:  75; 6HR MAX TEMP:  84;

ANGLETON       PTCLDY    74  58  57 CALM      30.05R
6HR MIN TEMP:  74; 6HR MAX TEMP:  88;

*BAY CITY      MOCLDY    77  56  47 S5        30.06R
PALACIOS       MOCLDY    77  62  59 S6        30.05S
6HR MIN TEMP:  77; 6HR MAX TEMP:  87;

$$

TXZ229>234-239>247-040100-
TEXAS COASTAL BEND AND RIO GRANDE PLAINS

CITY           SKY/WX    TMP DP  RH WIND       PRES   REMARKS
VICTORIA       MOCLDY    81  53  37 N5        30.05S
6HR MIN TEMP:  81; 6HR MAX TEMP:  90;

*BEEVILLE      MOCLDY    76  49  38 CALM      30.05S
6HR MIN TEMP:  78; 6HR MAX TEMP:  85;

ROCKPORT       MOCLDY    79  63  57 SE3       30.05S
6HR MIN TEMP:  79; 6HR MAX TEMP:  84;

*PORT ARANSAS  MOCLDY   N/A N/A N/A E3        30.07S
*PORT LAVACA   MOCLDY    82  54  38 S6        30.05
*INGLESIDE     MOCLDY    78  64  60 S3        30.05R
CORPUS CHRISTI CLOUDY    83  61  47 SE7       30.05R
6HR MIN TEMP:  83; 6HR MAX TEMP:  88;

CORPUS NAS     CLOUDY    80  64  58 SE6       30.05R
6HR MIN TEMP:  80; 6HR MAX TEMP:  86;

*ROBSTOWN      MOCLDY    81  57  44 MISG      30.05S
6HR MIN TEMP:  81; 6HR MAX TEMP:  85;

ALICE          CLOUDY    79  61  53 CALM      30.04S
6HR MIN TEMP:  79; 6HR MAX TEMP:  84;

KINGSVILLE NAS CLOUDY    79  62  56 SE7       30.05R
6HR MIN TEMP:  79; 6HR MAX TEMP:  87;

COTULLA        CLOUDY    82  50  32 NE5       30.06S
6HR MIN TEMP:  82; 6HR MAX TEMP:  87;

LAREDO         CLOUDY    80  57  45 E3        30.06S
6HR MIN TEMP:  80; 6HR MAX TEMP:  82;

$$

TXZ248>255-040100-
DEEP SOUTH TEXAS

CITY           SKY/WX    TMP DP  RH WIND       PRES   REMARKS
BROWNSVIL


USA.gov is the U.S. government's official web portal to all federal, state and local government web resources and services.